World > North America > United States > Massachusetts

Hourly Spencer, MA Regional Weather

Feedback E-mail the Weather

Quick WX

Spencer, MA Weather Maps

°F °C°F °C
Spencer Weather Map
UTC Time: 7/3/2022, 05:23
Your Time:

Spencer, MA Regional Weather

Expires:202207030600;;590778
ASUS41 KOKX 030514
RWROKX

Regional Weather Roundup
National Weather Service New York NY
100 AM EDT SUN JUL 03 2022

Note: "FAIR" indicates few or no clouds below 12,000 feet with no
significant weather and/or obstructions to visibility.


CTZ002-004>006-009-010-012-RIZ004-006-007-MAZ004-011-015-030600-
Southern New England

 In CT
  
CITY           SKY/WX    TMP DP  RH WIND       PRES   REMARKS
Bradley Intl   PTCLDY    71  68  90 N5        29.94S                  
Hartford       MOCLDY    76  66  71 NW3       29.93S                  
Danbury        MOCLDY    72  69  90 CALM      29.97R                  
Wtrbury/Oxford MOCLDY    68  66  94 CALM      29.98R FOG              
Norwalk Harbor   N/A     72 N/A N/A MISG        N/A                   
Bridgeport     PTCLDY    74  70  87 CALM      29.93S                  
Meriden        PTCLDY    71  68  90 CALM      29.94S                  
New Haven      PTCLDY    75  72  90 CALM      29.93S                  
Chester        FAIR      72  72 100 CALM      29.95S FOG              
Groton         PTCLDY    73  69  87 CALM      29.92S                  
Willimantic    PTCLDY    70  68  93 CALM      29.95R                  

 In RI
  
CITY           SKY/WX    TMP DP  RH WIND       PRES   REMARKS
Providence     PTCLDY    72  70  93 CALM      29.93R                  
Block Island   PTCLDY    69  67  93 SW13      29.96R                  
Westerly       PTCLDY    71  69  93 CALM      29.93S                  
 
In MA
  
CITY           SKY/WX    TMP DP  RH WIND       PRES   REMARKS
Boston         CLOUDY    73  65  75 W7        29.91S                  
Worcester      CLEAR     67  64  90 W9        29.96S                  
Westfield      PTCLDY    66  65  96 CALM      29.95R                  
Provincetown   FOG       68  68 100 SW8       29.92S VSB 1/4          
Nantucket      CLOUDY    70  69  97 SW10      29.95S FOG              
$$


SKY/WX - Weather  TMP - Temperature  DP - Dew Point  RH - Humidity
WIND - Wind Direction/Speed PRES - Barometric Pressure VSB - Visibility
WCI - Wind Chill Index E13G22 Wind - East Wind 13 mph/Gusts of 22 mph

Trending Headlines

Spencer Radar Loop



Spencer Quick Facts


National Two Day Weather Forecast


E-mail the Spencer Weather Forecast

Voice your opinion or tell us about page issues...